Location: Newark
(42.8481°N, 0.4872°E)
Time: 23:42:18
(UTC+00:00)

SR - Pass Details

Date: 31 October 2020
Orbit: 579 x 876 km, 66.7° (Epoch: 29 November)

Event Time Altitude Azimuth Distance (km) Brightness Sun altitude
Rises 03:25:00 0° 272° (W) 2,806 - -34.5°
Reaches altitude 10° 03:29:15 10° 313° (NW) 1,947 - -33.7°
Maximum altitude 03:30:07 11° 325° (NW) 1,925 - -33.6°
Drops below altitude 10° 03:30:59 10° 336° (NNW) 1,970 - -33.4°
Exits shadow 03:33:56 - 7° (N) 2,520 ? -32.9°
Sets 03:35:27 0° 17° (NNE) 2,952 ? -32.6°
